Regional Weather Roundup
Issued by NWS

Home | Current Version | Previous Version | Text Only | Print | Product List | Glossary Off
Versions: 1 2 3 4 5 6 7 8 9 10 11 12 13 14 15 16 17 18 19 20 21 22 23 24 25 26 27 28 29 30 31 32 33 34 35 36 37 38 39 40 41 42 43 44 45 46 47 48 49 50

952
ASUS43 KIND 230759
RWRIN

WEATHER ROUNDUP FOR INDIANA
NATIONAL WEATHER SERVICE INDIANAPOLIS IN
300 AM EST MON JAN 23 2017

NOTE: "FAIR" INDICATES FEW OR NO CLOUDS BELOW 12,000 FEET WITH NO
SIGNIFICANT WEATHER AND/OR OBSTRUCTIONS TO VISIBILITY.

* - STATION DOES NOT REPORT WEATHER SUCH AS PRECIPITATION OR FOG.

+ - STATION NOT QUALITY CONTROLLED BY THE NATIONAL WEATHER SERVICE.
    USE DATA WITH CAUTION...ESPECIALLY DEWPOINT AND RELATIVE
    HUMIDITY OBSERVATIONS.

INZ001>003-010>013-019-020-230900-
NORTHWEST INDIANA

CITY           SKY/WX    TMP DP  RH WIND       PRES   REMARKS
MONTICELLO +   CLOUDY    41  40  95 N13G20    29.60R FOG

$$

LMZ046-743>745-230900-
SOUTHERN LAKE MICHIGAN

STATION/POSITION TIME  TEMP    WIND        PRES    WAVE
                       AIR SEA DIR/SP/G            HT
                 (UTC) (F)     (DEG/KT/KT) (MB)    (FT)
BURNS HARBOR     0740   36     360/ 14/ 17 1005.4S
MICHIGAN CITY    0730   37     330/ 17/ 18   N/A

$$

INZ004-005-014>016-021>024-230900-
NORTH CENTRAL INDIANA

CITY           SKY/WX    TMP DP  RH WIND       PRES   REMARKS
GOSHEN         FOG       43  41  93 N10       29.60S VSB 1
PERU/GRISSOM   CLOUDY    45  45 100 N12       29.57R FOG
SOUTH BEND     CLOUDY    40  40 100 N12       29.64S FOG

$$

INZ006>009-017-018-025>027-230900-
NORTHEAST INDIANA

CITY           SKY/WX    TMP DP  RH WIND       PRES   REMARKS
ANGOLA *+      CLOUDY    43  28  56 NE7       29.58S
FORT WAYNE     FOG       47  46  97 NE10      29.57R VSB 1
KENDALLVILLE + CLOUDY    44  44 100 N6        29.59R FOG

$$

INZ028-029-035-036-043>045-051>053-230900-
WEST CENTRAL INDIANA

CITY           SKY/WX    TMP DP  RH WIND       PRES   REMARKS
CRAWFORDSVL +  FOG       40  40 100 N15       29.59R VSB 1/2
LAFAYETTE      CLOUDY    40  40 100 N12G21    29.61R FOG
TERRE HAUTE    CLOUDY    44  42  93 N13       29.59R FOG

$$

INZ030>032-037>040-046>048-054>057-064-065-230900-
CENTRAL INDIANA

CITY           SKY/WX    TMP DP  RH WIND       PRES   REMARKS
INDIANAPOLIS   CLOUDY    47  46  97 N17       29.53R FOG
-EAGLE CREEK   CLOUDY    47  45  93 N13       29.53R FOG
KOKOMO +       LGT RAIN  45  45 100 N12       29.58R VSB 1/2
MT COMFORT *+  CLOUDY    48  46  93 N18       29.52R
SHELBYVILLE    CLOUDY    50  47  89 N16       29.49R FOG

$$

INZ033-034-041-042-049-050-058-059-230900-
EAST CENTRAL INDIANA

CITY           SKY/WX    TMP DP  RH WIND       PRES   REMARKS
MUNCIE         FOG       49  47  93 N14       29.52R VSB 3/4

$$

INZ060-061-067>069-081>083-085>088-230900-
SOUTHWEST INDIANA

CITY           SKY/WX    TMP DP  RH WIND       PRES   REMARKS
EVANSVILLE     CLOUDY    48  44  86 NW18G28   29.52R
HUNTINGBURG *+ CLOUDY    50  47  89 N13       29.48R

$$

INZ062-063-066-070>080-084-089>092-230900-
SOUTH CENTRAL AND SOUTHEAST INDIANA

CITY           SKY/WX    TMP DP  RH WIND       PRES   REMARKS
BLOOMINGTON    CLOUDY    50  46  86 N16G23    29.50R FOG
MADISON *+     CLOUDY    54  46  76 N7        29.44R
SEYMOUR +      CLOUDY    52  48  87 N15       29.46R

$$





USA.gov is the U.S. government's official web portal to all federal, state and local government web resources and services.